Location: Old Broadwell Mill Observatory
(33.8015°N, 85.8137°W)
Time: 14:00:21
(UTC-06:00)

Daily predictions for brighter satellites

Satellite Brightness Start Highest point End
(mag) Time Altitude Azimuth Time Altitude Azimuth Time Altitude Azimuth
ATLAS 2A CENTAUR R/B 4.4 17:44:41 10° WSW 17:50:57 53° S 18:16:29 10° ESE
USA 229 DEB 4.3 17:54:56 10° NNW 18:01:33 38° NE 18:08:12 10° ESE
USA 229 4.4 17:55:02 10° NNW 18:01:38 38° NE 18:08:17 10° ESE
Cosmos 2219 3.3 17:57:09 10° SSW 18:02:55 90° WNW 18:08:41 10° NNE
Resurs 01 Rocket 3.1 18:05:28 10° ESE 18:08:25 18° ENE 18:11:22 10° NNE
Cosmos 1570 Rocket 4.0 18:05:09 10° N 18:10:20 60° ENE 18:15:30 10° SSE
NOAA 12 4.2 18:06:43 10° SSE 18:11:56 60° ENE 18:17:11 10° N
Okean 1 Rocket 3.3 18:10:47 10° S 18:15:15 78° W 18:19:45 10° N
Cosmos 1025 Rocket 3.5 18:12:44 10° N 18:16:52 39° E 18:20:59 10° SSE
Cosmos 1340 4.0 18:13:46 10° NNW 18:17:22 44° W 18:20:58 10° SSW
FREGAT/IRIS 3.0 18:16:19 10° SSE 18:19:15 43° ENE 18:22:12 10° N
Atlas Centaur 2 3.6 18:17:38 10° SW 18:24:56 38° SSE 18:30:22 14° E
GPS 2-04 Rocket1 3.0 18:21:59 10° W 18:26:10 67° N 18:29:35 16° E
GEOS 3 Rocket 4.4 18:22:05 10° NE 18:26:45 32° ESE 18:31:24 10° S
OTV 4 1.0 18:26:47 10° W 18:29:42 49° NNW 18:31:45 17° ENE
Cosmos 1536 3.5 18:25:59 10° SSW 18:29:53 58° W 18:33:50 10° N
FENGYUN 3A 3.9 18:26:29 10° SE 18:31:39 47° ENE 18:36:49 10° N
Cosmos 2074 Rocket 4.0 18:28:08 10° S 18:34:21 81° E 18:40:40 10° N
Okean 2 3.8 18:30:37 10° N 18:34:35 41° E 18:38:32 10° SSE
HJ-1C 3.6 18:34:31 10° SSE 18:37:44 45° ENE 18:40:59 10° N
Cosmos 1544 Rocket 3.8 18:36:51 10° SSE 18:40:56 44° E 18:45:04 10° NNE
METEOR-M 4.4 18:36:07 10° S 18:41:26 71° WSW 18:46:46 10° NNW
Cosmos 2184 Rocket 4.0 18:36:46 10° S 18:43:05 89° W 18:49:22 10° N
Cosmos 1980 4.4 18:38:27 10° N 18:43:31 33° ENE 18:46:48 19° ESE
Cosmos 2208 Rocket 4.4 18:38:44 10° NNW 18:44:08 70° WSW 18:49:26 10° S
NOSS 0 Rocket 4.2 18:38:44 10° N 18:44:37 45° ENE 18:50:08 11° SE
Cosmos 2333 Rocket 2.5 18:41:33 10° N 18:47:04 45° ENE 18:51:57 13° SE
Helios 1B rocket 3.2 18:45:13 10° NE 18:48:54 30° E 18:52:35 10° SSE
Helios 1A 3.9 18:52:55 26° ENE 18:52:55 26° ENE 18:56:16 10° NNE
Cosmos 1975 3.2 18:49:52 10° SSE 18:53:37 39° E 18:57:24 10° NNE
Cosmos 1500 3.6 18:52:18 10° SSE 18:55:50 38° E 18:59:21 10° NNE
Cosmos 1437 3.7 18:54:45 10° N 18:56:58 31° NE 18:56:58 31° NE
Skynet4D Del rocket 4.3 18:54:25 10° WSW 18:59:33 40° S 19:01:59 25° SE
CZ-3 Stage 3 4.4 18:02:20 10° SW 19:01:19 49° SSE 19:07:53 25° ESE
Cosmos 1486 Rocket 3.9 18:56:55 10° S 19:02:12 70° ESE 19:07:29 10° NNE
SL-19 R/B 4.3 18:57:28 10° SSE 19:03:08 74° ENE 19:09:13 10° N
Nadezhda 3 Rocket 4.1 18:58:06 10° N 19:04:06 52° E 19:10:08 10° SSE
Cosmos 2082 3.6 19:00:08 10° SSW 19:05:51 81° ESE 19:11:35 10° NNE
Cosmos 1515 4.1 19:02:22 10° N 19:05:38 42° ENE 19:05:38 42° ENE
Spot 1 4.2 19:11:15 44° ENE 19:11:15 44° ENE 19:14:57 10° N
Cosmos 841 Rocket 4.3 19:06:37 10° N 19:10:38 31° NE 19:10:38 31° NE
ATLAS CENTAUR R/B 2.9 19:07:53 10° WSW 19:12:14 33° WNW 19:13:24 22° N
Cosmos 2154 Rocket 3.9 19:06:32 10° S 19:12:52 82° E 19:19:14 10° N
Cosmos 2341 Rocket 4.0 19:08:38 10° S 19:14:52 62° E 19:21:10 10° NNE
Cosmos 1455 Rocket 3.1 19:13:44 10° S 19:18:07 79° W 19:22:29 10° N
Hubble Space Telescope 1.6 19:16:09 10° WSW 19:19:59 38° S 19:20:16 37° S
Cosmos 1763 Rocket 3.6 19:15:03 10° N 19:20:03 48° ENE 19:20:13 48° ENE
Cosmos 1503 Rocket 4.1 19:15:33 10° S 19:20:31 49° ESE 19:20:31 49° ESE
Cosmos 2297 Rocket 2.2 19:19:17 10° SSW 19:24:56 80° WNW 19:30:37 10° NNE
Cosmos 405 Rocket 3.5 19:21:02 10° NNW 19:24:57 52° W 19:28:47 10° S
H-2A R/B 3.3 19:22:32 15° S 19:25:30 56° W 19:29:13 10° NNW
ALOS 3.5 19:21:52 10° S 19:26:15 41° W 19:30:41 10° NNW
Meteor 2-19 Rocket 4.5 19:20:51 10° SSE 19:26:47 54° E 19:32:45 10° NNE
SEDSat Delta rocket 4.1 19:20:49 10° WSW 19:27:22 54° SSE 19:28:44 46° SE
OAO 3 Rocket 3.1 19:22:46 10° WSW 19:27:44 90° SSE 19:28:19 70° E
Cosmos 2237 Rocket 2.1 19:22:12 10° NNW 19:27:55 75° ENE 19:29:46 44° SE
Cosmos 332 Rocket 4.4 19:24:23 10° N 19:28:03 42° NNE 19:28:03 42° NNE
Meteor 2-8 Rocket 4.4 19:24:06 10° N 19:30:02 54° E 19:30:43 52° ESE
CZ-2D R/B 3.4 19:30:05 68° SW 19:30:19 71° WSW 19:34:08 10° NNW
Cosmos 1066 Rocket 4.0 19:30:17 10° N 19:35:50 68° E 19:36:02 67° E
Cosmos 2219 Rocket 3.0 19:31:30 10° NNW 19:36:54 50° WSW 19:42:17 10° S
Cosmos 962 Rocket 4.5 19:33:26 10° S 19:39:37 81° W 19:45:47 10° N
Resurs 01 Rocket 3.2 19:40:39 10° SSW 19:44:36 33° W 19:48:36 10° NNW
Cosmos 2227 Rocket 3.5 19:40:42 10° SW 19:45:56 38° WNW 19:51:13 10° N
ATLAS 3B CENTAUR R/B 4.4 19:24:32 10° WSW 19:55:03 59° S 19:59:51 45° ESE
SL-16 R/B 3.2 19:59:43 10° NNW 20:03:01 35° N 20:03:01 35° N
NOSS 3-1 (A) 4.0 19:57:45 10° NNW 20:05:37 82° ENE 20:06:35 72° SE
Envisat 4.5 20:12:39 29° NNW 20:12:39 29° NNW 20:15:08 10° NNW
ATLAS 2AS CENTAUR R/B 4.2 20:04:19 10° NNW 20:09:17 26° NNE 20:09:17 26° NNE
Atlas Centaur 2 3.0 20:06:54 10° WSW 20:13:02 52° SW 20:13:02 52° SW
NOSS 3-1 (C) 4.4 20:14:28 10° NW 20:22:14 63° WSW 20:24:02 52° SSW
SL-8 Rocket 4.4 20:16:17 10° SSW 20:22:36 60° WNW 20:28:41 10° N
Cosmos 2333 Rocket 4.4 20:26:47 10° NW 20:30:55 21° W 20:34:05 13° SW
